SQ3MKP-13 Weather Reports


time (UTC)temp
C
wind
direction
speed
KPH
gust
KPH
rain 1hr
cm
rain 24hr
cm
rain mn
cm
humidity
%
barometer
mb
20260905223307 12 252 8.0 14.5 0.00 0.00 0.00 90 1008.7
20260905222805 12 276 6.4 14.5 0.00 0.00 0.00 90 1008.6
20260905222306 12 222 8.0 16.1 0.00 0.00 0.00 90 1008.5
20260905221803 12 258 9.7 16.1 0.00 0.00 0.00 90 1008.6
20260905221303 12 234 9.7 16.1 0.00 0.00 0.00 90 1008.6
20260905220802 12 240 6.4 9.7 0.00 0.00 0.00 90 1008.6
20260905220300 12 258 9.7 14.5 0.00 0.00 0.00 90 1008.5
20260905215800 12 240 8.0 14.5 0.00 0.00 0.00 91 1008.4
20260905215258 12 284 4.8 11.3 0.00 0.00 0.00 91 1008.4
20260905214757 12 234 8.0 16.1 0.00 0.00 0.00 90 1008.4
20260905214256 12 258 6.4 12.9 0.00 0.00 0.00 90 1008.3
20260905213755 12 234 8.0 14.5 0.00 0.00 0.00 90 1008.3
20260905213254 12 258 6.4 16.1 0.00 0.00 0.00 90 1008.3
20260905212754 12 184 9.7 14.5 0.00 0.00 0.00 90 1008.2
20260905212253 12 296 9.7 14.5 0.00 0.00 0.00 90 1008.1
20260905211752 12 264 9.7 12.9 0.00 0.00 0.00 89 1008.1
20260905211251 12 240 6.4 9.7 0.00 0.00 0.00 89 1008.0
20260905210749 12 251 9.7 16.1 0.00 0.00 0.00 89 1008.1
20260905210249 12 264 8.0 11.3 0.00 0.00 0.00 89 1008.0
20260905205748 12 246 9.7 16.1 0.00 0.00 0.00 89 1008.0
20260905205247 12 264 9.7 20.9 0.00 0.00 0.00 89 1008.0
20260905204746 12 256 9.7 20.9 0.00 0.00 0.00 89 1008.0
20260905204245 12 240 11.3 16.1 0.00 0.00 0.00 89 1007.9
20260905203744 12 258 9.7 17.7 0.00 0.00 0.00 90 1007.9
20260905203243 12 218 8.0 16.1 0.00 0.00 0.00 90 1007.8
20260905202742 12 240 9.7 17.7 0.00 0.00 0.00 90 1007.8
20260905202241 12 234 9.7 16.1 0.00 0.00 0.00 90 1007.8
20260905201740 12 306 8.0 16.1 0.00 0.00 0.00 90 1007.7
20260905201239 12 252 8.0 12.9 0.00 0.00 0.00 91 1007.7
20260905200738 12 252 9.7 17.7 0.00 0.00 0.00 90 1007.6
20260905200237 12 295 0.0 0.0 0.00 0.00 0.00 90 1007.6
20260905195736 12 295 6.4 9.7 0.00 0.00 0.00 90 1007.6
20260905195235 12 256 8.0 11.3 0.00 0.00 0.00 90 1007.5
20260905194734 12 264 4.8 11.3 0.00 0.00 0.00 90 1007.4
20260905194232 12 307 6.4 9.7 0.00 0.00 0.00 90 1007.5
20260905193732 12 282 8.0 14.5 0.00 0.00 0.00 89 1007.4
20260905193231 13 336 9.7 16.1 0.00 0.00 0.00 90 1007.4
20260905192730 12 252 9.7 14.5 0.00 0.00 0.00 89 1007.3
20260905192229 13 246 6.4 6.4 0.00 0.00 0.00 89 1007.3
20260905191728 13 262 8.0 11.3 0.00 0.00 0.00 89 1007.3
20260905191227 13 228 0.0 0.0 0.00 0.00 0.00 89 1007.3
20260905190726 13 228 9.7 16.1 0.00 0.00 0.00 89 1007.2
20260905190225 13 204 9.7 14.5 0.00 0.00 0.00 89 1007.1
20260905185724 13 246 9.7 16.1 0.00 0.00 0.00 89 1007.0
20260905185224 13 270 9.7 17.7 0.00 0.00 0.00 90 1006.9
20260905184723 13 270 6.4 9.7 0.00 0.00 0.00 90 1006.9
20260905184222 13 246 9.7 14.5 0.00 0.00 0.00 89 1006.9
20260905183720 13 264 9.7 16.1 0.00 0.00 0.00 89 1006.9
20260905183219 13 276 9.7 11.3 0.00 0.00 0.00 89 1006.9
20260905182718 13 246 9.7 14.5 0.00 0.00 0.00 89 1006.8
20260905182217 13 264 8.0 12.9 0.00 0.00 0.00 89 1006.8
20260905181716 13 282 8.0 14.5 0.00 0.00 0.00 88 1006.9
20260905181215 13 258 8.0 9.7 0.00 0.00 0.00 88 1006.6
20260905180714 13 282 9.7 16.1 0.00 0.00 0.00 88 1006.7
20260905180213 13 246 11.3 17.7 0.00 0.00 0.00 88 1006.7
20260905175712 13 240 8.0 17.7 0.00 0.00 0.00 88 1006.5
20260905175211 13 256 11.3 16.1 0.00 0.00 0.00 88 1006.6
20260905174709 13 264 9.7 16.1 0.00 0.00 0.00 88 1006.5
20260905174208 13 224 8.0 9.7 0.00 0.00 0.00 88 1006.4
20260905173707 13 282 8.0 11.3 0.00 0.00 0.00 89 1006.4
20260905173206 13 258 9.7 16.1 0.00 0.00 0.00 89 1006.2
20260905172705 13 264 16.1 16.1 0.00 0.00 0.00 90 1006.2
20260905172204 12 201 0.0 0.0 0.00 0.00 0.00 91 1006.1
20260905171703 12 201 8.0 9.7 0.00 0.00 0.00 91 1006.3
20260905171202 13 324 6.4 6.4 0.00 0.00 0.00 90 1006.3
20260905170702 12 213 6.4 11.3 0.00 0.00 0.00 91 1006.2
20260905170200 12 282 9.7 12.9 0.00 0.00 0.00 91 1006.3
20260905165659 13 276 8.0 9.7 0.00 0.00 0.00 91 1006.2
20260905165158 12 222 0.0 0.0 0.00 0.00 0.00 92 1006.2
20260905164657 12 222 6.4 9.7 0.00 0.00 0.00 92 1006.1
20260905164156 12 252 0.0 0.0 0.03 0.00 0.00 92 1006.2
20260905163655 12 252 6.4 8.0 0.05 0.00 0.00 92 1006.2
20260905163154 13 252 11.3 14.5 0.13 0.00 0.00 92 1006.3
20260905162653 13 256 12.9 19.3 0.46 0.00 0.00 91 1006.6
20260905162152 13 222 11.3 17.7 0.43 0.00 0.00 91 1006.7
20260905161651 13 270 20.9 25.7 0.36 0.00 0.00 90 1006.6
20260905161150 15 282 8.0 9.7 0.00 0.00 0.00 79 1006.5
20260905160650 15 246 4.8 4.8 0.00 0.00 0.00 78 1005.1
20260905160148 15 234 6.4 9.7 0.00 0.00 0.00 77 1005.0
20260905155647 15 246 9.7 11.3 0.00 0.00 0.00 76 1005.0
20260905155146 15 181 4.8 9.7 0.00 0.00 0.00 78 1005.0
20260905154645 15 282 4.8 6.4 0.00 0.00 0.00 78 1005.1
20260905154144 16 252 6.4 8.0 0.00 0.00 0.00 78 1005.2
20260905153642 15 250 4.8 6.4 0.00 0.00 0.00 78 1005.1
20260905153142 15 231 4.8 4.8 0.00 0.00 0.00 79 1005.2
20260905152641 15 270 8.0 8.0 0.00 0.00 0.00 78 1005.2
20260905152139 15 216 4.8 6.4 0.00 0.00 0.00 79 1005.2
20260905151639 15 258 11.3 14.5 0.00 0.00 0.00 78 1005.2
20260905151137 15 246 8.0 11.3 0.03 0.00 0.00 79 1005.3
20260905150636 15 264 3.2 4.8 0.03 0.00 0.00 79 1005.5
20260905150136 15 273 9.7 11.3 0.03 0.00 0.00 78 1005.5
20260905145634 16 185 9.7 11.3 0.00 0.00 0.00 74 1005.6
20260905145134 16 244 11.3 17.7 0.00 0.00 0.00 72 1005.6
20260905144632 16 223 9.7 16.1 0.00 0.00 0.00 71 1005.5
20260905144132 17 290 6.4 9.7 0.00 0.00 0.00 68 1005.3
20260905143630 17 228 6.4 12.9 0.00 0.00 0.00 67 1005.2
20260905143129 17 246 8.0 11.3 0.00 0.00 0.00 68 1005.0
20260905142628 17 216 8.0 11.3 0.00 0.00 0.00 68 1005.0
20260905142126 17 249 11.3 14.5 0.00 0.00 0.00 66 1005.0
20260905141626 17 170 9.7 16.1 0.00 0.00 0.00 70 1005.0
20260905141125 17 180 0.0 0.0 0.00 0.00 0.00 72 1005.1
20260905140624 17 180 8.0 14.5 0.00 0.00 0.00 72 1005.0
20260905140123 17 252 4.8 4.8 0.00 0.00 0.00 71 1005.0
20260905135622 17 270 6.4 8.0 0.00 0.00 0.00 73 1004.9
20260905135121 16 266 8.0 9.7 0.00 0.00 0.00 74 1004.9
20260905134620 16 270 3.2 6.4 0.00 0.00 0.00 74 1004.9
20260905134119 16 246 8.0 9.7 0.00 0.00 0.00 75 1004.9
20260905133618 16 258 6.4 8.0 0.00 0.00 0.00 76 1004.8
20260905133117 15 240 0.0 0.0 0.03 0.00 0.00 75 1004.9
20260905132615 15 240 11.3 14.5 0.03 0.00 0.00 75 1004.8
20260905132115 15 240 11.3 16.1 0.03 0.00 0.00 77 1004.8
20260905131614 17 246 11.3 17.7 0.00 0.00 0.00 66 1005.1
20260905131113 18 228 14.5 20.9 0.00 0.00 0.00 64 1004.8
20260905130612 18 296 9.7 14.5 0.00 0.00 0.00 63 1004.7
20260905130111 18 252 12.9 20.9 0.00 0.00 0.00 61 1004.7
20260905125610 18 275 12.9 17.7 0.00 0.00 0.00 63 1004.6
20260905125108 18 300 9.7 16.1 0.00 0.00 0.00 67 1004.6
20260905124607 18 262 6.4 14.5 0.00 0.00 0.00 72 1004.6
20260905124107 18 282 8.0 12.9 0.00 0.00 0.00 76 1004.5
20260905123605 17 290 8.0 14.5 0.00 0.00 0.00 75 1004.6
20260905123104 17 237 6.4 11.3 0.00 0.00 0.00 78 1004.6
20260905122603 17 258 8.0 16.1 0.00 0.00 0.00 76 1004.6
20260905122102 16 145 9.7 16.1 0.00 0.00 0.00 79 1004.7
20260905121601 16 238 6.4 6.4 0.03 0.00 0.00 84 1004.7
20260905121100 15 276 3.2 4.8 0.03 0.00 0.00 85 1004.9
20260905120600 15 216 6.4 8.0 0.03 0.00 0.00 88 1004.9
20260905120059 13 205 0.0 0.0 0.00 0.00 0.00 90 1004.9
20260905115557 13 205 0.0 0.0 0.00 0.00 0.00 90 1004.9
20260905115056 13 205 0.0 0.0 0.00 0.00 0.00 90 1004.9
20260905114556 13 205 4.8 8.0 0.23 0.00 0.00 90 1005.1
20260905114054 13 234 6.4 9.7 0.23 0.00 0.00 90 1005.4
20260905113553 13 258 4.8 8.0 0.00 0.00 0.00 89 1005.3
20260905113052 13 294 8.0 9.7 0.00 0.00 0.00 88 1005.5
20260905112552 13 330 9.7 16.1 0.00 0.00 0.00 88 1005.5
20260905111700 16 322 14.5 29.0 0.03 0.00 0.00 72 1005.8
20260905111159 18 232 9.7 17.7 0.00 0.00 0.00 63 1005.1
20260905110657 18 251 12.9 22.5 0.00 0.00 0.00 61 1005.0
20260905110156 18 296 11.3 29.0 0.00 0.00 0.00 61 1004.8
20260905105656 18 264 16.1 24.1 0.00 0.00 0.00 60 1004.9
20260905105155 18 258 8.0 9.7 0.00 0.00 0.00 60 1004.8
20260905104654 18 252 11.3 17.7 0.00 0.00 0.00 60 1004.7
20260905104152 18 252 9.7 14.5 0.00 0.00 0.00 61 1004.8
20260905103651 18 200 12.9 17.7 0.00 0.00 0.00 60 1004.7
20260905103150 18 197 12.9 17.7 0.00 0.00 0.00 61 1004.7
20260905102649 17 228 12.9 22.5 0.00 0.00 0.00 62 1004.7
20260905102148 18 163 12.9 19.3 0.00 0.00 0.00 62 1004.7
20260905101648 18 181 11.3 16.1 0.00 0.00 0.00 62 1004.6
20260905101146 18 223 11.3 12.9 0.00 0.00 0.00 59 1004.5
20260905100646 18 198 16.1 24.1 0.00 0.00 0.00 59 1004.6
20260905100145 18 285 11.3 19.3 0.00 0.00 0.00 60 1004.5
20260905095644 18 301 14.5 25.7 0.00 0.00 0.00 60 1004.6
20260905095143 18 264 14.5 27.4 0.00 0.00 0.00 61 1004.6
20260905094642 18 239 14.5 24.1 0.00 0.00 0.00 59 1004.5
20260905094141 18 246 14.5 17.7 0.00 0.00 0.00 60 1004.4
20260905093640 18 232 16.1 27.4 0.00 0.00 0.00 61 1004.6
20260905093139 18 272 12.9 19.3 0.00 0.00 0.00 60 1004.7
20260905092638 18 282 14.5 24.1 0.00 0.00 0.00 61 1004.6
20260905092137 18 262 14.5 20.9 0.00 0.00 0.00 60 1004.5
20260905091636 17 194 16.1 25.7 0.00 0.00 0.00 61 1004.6
20260905091135 18 216 11.3 20.9 0.00 0.00 0.00 61 1004.6
20260905090634 17 307 11.3 20.9 0.00 0.00 0.00 63 1004.6
20260905090133 17 306 16.1 33.8 0.00 0.00 0.00 62 1004.5
20260905085632 17 222 12.9 27.4 0.00 0.00 0.00 63 1004.4
20260905085131 17 250 16.1 25.7 0.00 0.00 0.00 63 1004.4
20260905084630 17 276 14.5 22.5 0.00 0.00 0.00 64 1004.4
20260905084129 17 274 11.3 16.1 0.00 0.00 0.00 63 1004.3
20260905083627 17 258 11.3 12.9 0.00 0.00 0.00 65 1004.2
20260905083127 17 240 16.1 20.9 0.00 0.00 0.00 65 1004.2
20260905082626 17 252 14.5 22.5 0.00 0.00 0.00 65 1004.1
20260905082125 17 312 12.9 17.7 0.00 0.00 0.00 67 1004.1
20260905081624 17 307 14.5 25.7 0.00 0.00 0.00 68 1004.1
20260905081123 17 240 11.3 17.7 0.00 0.00 0.00 67 1004.0
20260905080622 16 240 12.9 17.7 0.00 0.00 0.00 68 1004.0
20260905080121 17 270 16.1 20.9 0.00 0.00 0.00 67 1004.0
20260905075620 17 258 14.5 20.9 0.00 0.00 0.00 68 1003.9
20260905075119 16 276 16.1 22.5 0.00 0.00 0.00 70 1003.9
20260905074619 17 294 12.9 17.7 0.00 0.00 0.00 70 1003.8
20260905074118 16 233 12.9 20.9 0.00 0.00 0.00 70 1003.8
20260905073617 16 279 16.1 27.4 0.00 0.00 0.00 71 1003.7
20260905073116 16 278 14.5 24.1 0.00 0.00 0.00 72 1003.9
20260905072615 16 260 16.1 20.9 0.00 0.00 0.00 72 1003.7
20260905072114 16 334 11.3 20.9 0.00 0.00 0.00 73 1003.7
20260905071613 16 256 12.9 16.1 0.00 0.00 0.00 73 1003.6
20260905071112 16 228 14.5 17.7 0.00 0.00 0.00 74 1003.6
20260905070611 16 228 11.3 17.7 0.00 0.00 0.00 75 1003.5
20260905070110 15 255 11.3 16.1 0.00 0.00 0.00 76 1003.4
20260905065609 15 240 12.9 17.7 0.00 0.00 0.00 78 1003.4
20260905065108 15 246 9.7 16.1 0.00 0.00 0.00 79 1003.4
20260905064606 15 276 9.7 12.9 0.00 0.00 0.00 80 1003.3
20260905064106 15 234 16.1 16.1 0.00 0.00 0.00 80 1003.4
20260905063605 15 261 16.1 16.1 0.00 0.00 0.00 80 1003.3
20260905063104 15 264 8.0 9.7 0.00 0.00 0.00 79 1003.2
20260905062603 15 244 6.4 8.0 0.00 0.00 0.00 79 1003.2
20260905062102 15 228 0.0 0.0 0.00 0.00 0.00 80 1003.2
20260905061601 15 228 8.0 9.7 0.00 0.00 0.00 80 1003.1
20260905061100 15 270 12.9 16.1 0.00 0.00 0.00 80 1003.2
20260905060600 15 288 9.7 16.1 0.00 0.00 0.00 80 1003.2
20260905060059 15 246 3.2 3.2 0.00 0.00 0.00 79 1003.1
20260905055557 15 222 8.0 11.3 0.00 0.00 0.00 80 1003.0
20260905055056 15 246 14.5 17.7 0.00 0.00 0.00 79 1002.9
20260905054555 15 228 11.3 17.7 0.00 0.00 0.00 80 1003.0
20260905054054 15 198 8.0 16.1 0.00 0.00 0.00 80 1002.8
20260905053553 15 270 6.4 9.7 0.00 0.00 0.00 81 1002.8
20260905053052 15 233 12.9 14.5 0.00 0.00 0.00 81 1002.6
20260905052551 15 252 12.9 17.7 0.00 0.00 0.00 81 1002.6
20260905052050 15 232 9.7 12.9 0.00 0.00 0.00 81 1002.5
20260905051549 15 240 11.3 17.7 0.00 0.00 0.00 81 1002.4
20260905051049 15 255 12.9 17.7 0.00 0.00 0.00 82 1002.4
20260905050548 15 234 9.7 14.5 0.00 0.00 0.00 81 1002.3
20260905050046 15 210 8.0 9.7 0.00 0.00 0.00 81 1002.2
20260905045545 15 234 12.9 16.1 0.00 0.00 0.00 82 1002.3
20260905045044 15 276 9.7 16.1 0.00 0.00 0.00 82 1002.3
20260905044544 15 210 11.3 11.3 0.00 0.00 0.00 82 1002.3
20260905044042 15 252 9.7 16.1 0.00 0.00 0.00 82 1002.2
20260905043540 15 198 9.7 16.1 0.00 0.00 0.00 83 1002.1
20260905043039 15 234 11.3 16.1 0.00 0.00 0.00 83 1002.0
20260905042539 15 264 8.0 16.1 0.00 0.00 0.00 83 1001.9
20260905042038 15 294 8.0 16.1 0.00 0.00 0.00 84 1001.9
20260905041537 15 270 11.3 16.1 0.00 0.00 0.00 83 1001.8
20260905041036 15 216 9.7 16.1 0.00 0.00 0.00 83 1001.7
20260905040535 15 240 11.3 17.7 0.00 0.00 0.00 83 1001.6
20260905040034 15 175 12.9 17.7 0.00 0.00 0.00 83 1001.6
20260905035532 15 234 8.0 11.3 0.00 0.00 0.00 84 1001.5
20260905035032 15 250 11.3 16.1 0.00 0.00 0.00 84 1001.5
20260905034530 15 264 11.3 16.1 0.00 0.00 0.00 83 1001.5
20260905034029 15 262 9.7 16.1 0.00 0.00 0.00 84 1001.4
20260905033529 15 234 9.7 14.5 0.00 0.00 0.00 84 1001.3
20260905033027 15 276 12.9 17.7 0.00 0.00 0.00 83 1001.3
20260905032526 15 232 9.7 17.7 0.00 0.00 0.00 83 1001.3
20260905032025 15 278 12.9 19.3 0.00 0.00 0.00 83 1001.2
20260905031524 15 276 14.5 20.9 0.00 0.00 0.00 83 1001.1
20260905031024 15 276 11.3 17.7 0.00 0.00 0.00 82 1001.1
20260905030523 15 246 11.3 17.7 0.00 0.00 0.00 82 1001.1
20260905030021 15 282 6.4 9.7 0.00 0.00 0.00 82 1000.9
20260905025520 15 223 11.3 20.9 0.00 0.00 0.00 82 1000.8
20260905025019 15 239 12.9 20.9 0.00 0.00 0.00 83 1000.8
20260905024518 15 291 12.9 19.3 0.00 0.00 0.00 83 1000.6
20260905024018 15 300 9.7 16.1 0.00 0.00 0.00 83 1000.6
20260905023517 15 276 8.0 11.3 0.00 0.00 0.00 84 1000.7
20260905022514 15 270 8.0 8.0 0.00 0.00 0.00 84 1000.6
20260905022013 15 240 11.3 16.1 0.00 0.00 0.00 83 1000.7
20260905021511 15 264 8.0 11.3 0.00 0.00 0.00 84 1000.7
20260905021010 15 251 9.7 11.3 0.00 0.00 0.00 84 1000.6
20260905020509 15 252 6.4 8.0 0.00 0.00 0.00 84 1000.6
20260905020008 16 276 9.7 16.1 0.00 0.00 0.00 83 1000.6
20260905015507 16 216 9.7 11.3 0.00 0.00 0.00 83 1000.6
20260905015006 16 288 6.4 16.1 0.00 0.00 0.00 83 1000.4
20260905014505 16 278 9.7 16.1 0.00 0.00 0.00 83 1000.3
20260905014004 16 238 6.4 6.4 0.00 0.00 0.00 83 1000.2
20260905013502 16 258 8.0 9.7 0.00 0.00 0.00 82 1000.3
20260905013002 16 232 8.0 9.7 0.00 0.00 0.00 81 1000.2
20260905012501 16 288 11.3 16.1 0.00 0.00 0.00 82 1000.2
20260905012000 16 264 8.0 9.7 0.00 0.00 0.00 82 1000.2
20260905011459 16 216 8.0 14.5 0.00 0.00 0.00 82 1000.1
20260905010958 16 252 0.0 0.0 0.00 0.00 0.00 82 1000.1
20260905010457 16 252 9.7 16.1 0.00 0.00 0.00 82 1000.3
20260905005956 16 268 9.7 20.9 0.00 0.00 0.00 82 1000.2
20260905005455 16 234 9.7 16.1 0.00 0.00 0.00 82 1000.0
20260905004953 16 223 9.7 16.1 0.00 0.00 0.00 81 1000.0
20260905004452 16 246 14.5 19.3 0.00 0.00 0.00 81 999.9
20260905003951 16 252 11.3 11.3 0.00 0.00 0.00 80 999.9
20260905003449 16 210 16.1 20.9 0.00 0.00 0.00 80 999.8
20260905002948 16 264 9.7 11.3 0.00 0.00 0.00 81 999.7
20260905002448 16 264 11.3 17.7 0.00 0.00 0.00 81 999.4
20260905001947 16 240 11.3 17.7 0.00 0.00 0.00 81 999.2
20260905000944 16 240 12.9 17.7 0.00 0.00 0.00 82 999.2
20260905000443 16 222 12.9 20.9 0.00 0.00 0.00 83 999.2
20260904235941 16 354 0.0 0.0 0.00 0.00 0.00 84 999.3
20260904235440 16 354 11.3 17.7 0.00 0.00 0.00 84 999.3
20260904234939 16 284 12.9 20.9 0.00 0.00 0.00 84 999.3
20260904234438 16 288 9.7 14.5 0.00 0.00 0.00 85 999.3
20260904233936 16 270 8.0 11.3 0.00 0.00 0.00 85 999.3
20260904233435 16 216 9.7 14.5 0.00 0.00 0.00 85 999.2
20260904232935 16 237 11.3 16.1 0.00 0.00 0.00 84 999.2
20260904232433 16 186 12.9 17.7 0.00 0.00 0.00 85 999.1
20260904231932 16 239 11.3 24.1 0.00 0.00 0.00 85 999.0
20260904231430 16 246 12.9 19.3 0.00 0.00 0.00 85 999.0
20260904230930 16 222 11.3 22.5 0.00 0.00 0.00 85 998.7
20260904230429 16 258 9.7 17.7 0.00 0.00 0.00 85 998.7
20260904225927 16 264 9.7 17.7 0.00 0.00 0.00 85 998.5
20260904225426 16 250 14.5 17.7 0.00 0.00 0.00 85 998.5
20260904224925 16 258 12.9 17.7 0.00 0.00 0.00 84 998.4
20260904224425 16 270 12.9 22.5 0.00 0.00 0.00 84 998.4
20260904223924 16 228 11.3 17.7 0.00 0.00 0.00 84 998.5
20260904223422 16 244 11.3 16.1 0.00 0.00 0.00 84 998.4